GW2634 Weather Reports


time (UTC)temp
C
wind
direction
speed
KPH
gust
KPH
rain 1hr
cm
rain 24hr
cm
rain mn
cm
humidity
%
barometer
mb
20260506134542 10 176 6.4 12.9 0.00 0.00 0.00 89 1020.2
20260506133052 10 136 4.8 11.3 0.00 0.00 0.00 89 1019.9
20260506131549 10 210 4.8 14.5 0.00 0.00 0.00 88 1019.9
20260506130049 10 235 8.0 19.3 0.00 0.00 0.00 87 1019.9
20260506124545 10 205 9.7 19.3 0.00 0.00 0.00 87 1019.6
20260506123044 10 210 11.3 19.3 0.00 0.00 0.00 88 1019.9
20260506121543 10 190 8.0 17.7 0.00 0.00 0.00 88 1019.8
20260506120046 10 213 9.7 20.9 0.00 0.00 0.00 88 1019.4
20260506114543 10 231 11.3 19.3 0.00 0.00 0.00 88 1019.3
20260506113048 10 236 8.0 20.9 0.00 0.00 0.00 88 1019.3
20260506111542 10 259 11.3 19.3 0.00 0.00 0.00 88 1019.4
20260506110041 10 255 9.7 19.3 0.00 0.00 0.00 89 1019.1
20260506104556 10 224 9.7 20.9 0.00 0.00 0.00 89 1019.0
20260506103042 10 218 8.0 20.9 0.00 0.00 0.00 89 1018.9
20260506101550 10 236 6.4 14.5 0.00 0.00 0.00 89 1018.7
20260506100042 10 205 6.4 14.5 0.00 0.00 0.00 90 1018.6
20260506094543 10 207 6.4 17.7 0.00 0.00 0.00 91 1018.6
20260506093041 10 178 6.4 12.9 0.00 0.00 0.00 92 1018.5
20260506091542 10 201 6.4 12.9 0.00 0.00 0.00 92 1018.5
20260506090041 10 200 6.4 14.5 0.00 0.00 0.00 92 1018.5
20260506084545 10 200 6.4 12.9 0.00 0.00 0.00 92 1018.5
20260506083219 10 160 6.4 12.9 0.00 0.00 0.00 92 1018.5
20260506081541 10 74 4.8 12.9 0.00 0.00 0.00 92 1018.5
20260506073050 10 192 6.4 14.5 0.00 0.00 0.00 92 1018.1
20260506071545 10 176 6.4 11.3 0.00 0.00 0.00 92 1018.1
20260506061542 10 154 6.4 14.5 0.00 0.00 0.00 91 1017.7
20260506044542 10 186 8.0 14.5 0.00 0.00 0.00 89 1017.1
20260506043041 11 161 8.0 12.9 0.00 0.00 0.00 89 1017.0
20260506041545 11 168 8.0 14.5 0.00 0.00 0.00 89 1016.7
20260506040047 11 159 6.4 12.9 0.00 0.00 0.00 88 1016.7
20260506034543 11 195 6.4 11.3 0.00 0.00 0.00 87 1016.4
20260506033043 11 152 8.0 12.9 0.00 0.00 0.00 86 1016.4
20260506031542 12 203 9.7 14.5 0.00 0.00 0.00 84 1016.4
20260506030047 12 174 6.4 14.5 0.00 0.00 0.00 83 1016.4
20260506024545 12 181 6.4 12.9 0.00 0.00 0.00 81 1016.5
20260506023055 13 155 8.0 12.9 0.00 0.00 0.00 81 1016.5
20260506021552 13 174 6.4 12.9 0.00 0.00 0.00 80 1016.6
20260506020042 13 180 6.4 12.9 0.00 0.00 0.00 81 1016.6
20260506014548 13 159 8.0 12.9 0.00 0.00 0.00 80 1016.7
20260506013048 14 167 4.8 12.9 0.00 0.00 0.00 78 1016.7
20260506011543 14 172 6.4 14.5 0.00 0.00 0.00 78 1016.7
20260506010054 14 151 6.4 11.3 0.00 0.00 0.00 77 1016.8
20260506004547 14 155 6.4 11.3 0.00 0.00 0.00 78 1016.7
20260506003041 14 169 6.4 14.5 0.00 0.00 0.00 79 1016.7
20260506001546 14 192 8.0 14.5 0.00 0.00 0.00 77 1016.8
20260506000048 15 130 6.4 12.9 0.00 0.00 0.00 78 1017.0
20260505234603 15 208 4.8 11.3 0.00 0.00 0.00 80 1017.0
20260505233043 14 145 8.0 11.3 0.00 0.00 0.00 79 1017.2
20260505231542 14 162 6.4 11.3 0.00 0.00 0.00 79 1017.3
20260505230041 14 146 6.4 14.5 0.00 0.00 0.00 79 1017.5
20260505224542 13 139 4.8 11.3 0.00 0.00 0.00 80 1017.4
20260505223046 13 203 4.8 11.3 0.00 0.00 0.00 80 1017.4
20260505221545 13 165 6.4 12.9 0.00 0.00 0.00 81 1017.7
20260505220045 13 204 4.8 11.3 0.00 0.00 0.00 83 1017.7
20260505214601 13 187 8.0 14.5 0.00 0.00 0.00 83 1017.7
20260505213058 13 177 6.4 12.9 0.00 0.00 0.00 84 1017.7
20260505211542 13 197 4.8 9.7 0.00 0.00 0.00 84 1017.8
20260505210042 12 160 6.4 11.3 0.00 0.00 0.00 85 1017.9
20260505204553 13 132 4.8 9.7 0.00 0.00 0.00 84 1018.0
20260505203047 12 191 4.8 8.0 0.00 0.00 0.00 86 1018.0
20260505201541 12 178 3.2 8.0 0.00 0.00 0.00 86 1018.0
20260505200100 12 210 4.8 9.7 0.00 0.00 0.00 87 1017.9
20260505194548 12 219 3.2 9.7 0.00 0.00 0.00 88 1018.0
20260505193048 12 160 3.2 9.7 0.00 0.00 0.00 89 1018.0
20260505191542 12 212 4.8 8.0 0.00 0.00 0.00 89 1018.0
20260505190042 12 240 1.6 6.4 0.00 0.00 0.00 89 1017.9
20260505184541 12 216 1.6 6.4 0.00 0.00 0.00 90 1017.8
20260505183047 11 221 3.2 6.4 0.00 0.00 0.00 90 1017.7
20260505181543 11 141 3.2 6.4 0.00 0.00 0.00 90 1017.8
20260505180103 11 0 1.6 4.8 0.00 0.00 0.00 91 1017.7
20260505174558 11 220 1.6 4.8 0.00 0.00 0.00 92 1017.7
20260505173045 11 233 0.0 1.6 0.00 0.00 0.00 93 1017.6
20260505171547 11 198 0.0 1.6 0.00 0.00 0.00 94 1017.5
20260505170048 11 165 0.0 3.2 0.00 0.00 0.00 94 1017.4
20260505164547 10 229 0.0 3.2 0.00 0.00 0.00 95 1017.5
20260505163042 10 195 0.0 3.2 0.00 0.00 0.00 95 1017.4
20260505161541 10 138 0.0 3.2 0.00 0.00 0.00 95 1017.5
20260505153045 10 158 1.6 4.8 0.00 0.00 0.00 95 1017.3
20260505151543 10 171 1.6 6.4 0.00 0.00 0.00 95 1017.2